TimeEDT,TemperatureF,Dew PointF,Humidity,Sea Level PressureIn,VisibilityMPH,Wind Direction,Wind SpeedMPH,Gust SpeedMPH,PrecipitationIn,Events,Conditions,WindDirDegrees,DateUTC
12:14 AM,32.9,26.6,78,30.12,10.0,WSW,3.5,-,N/A,,Clear,240,2012-10-11 04:14:00
12:34 AM,32.5,26.6,79,30.12,10.0,Calm,Calm,-,N/A,,Clear,0,2012-10-11 04:34:00
12:53 AM,31.6,26.4,81,30.12,10.0,Calm,Calm,-,N/A,,Clear,0,2012-10-11 04:53:00
1:13 AM,30.9,27.1,86,30.12,10.0,Calm,Calm,-,N/A,,Clear,0,2012-10-11 05:13:00
1:34 AM,28.4,25.5,89,30.12,10.0,Calm,Calm,-,N/A,,Clear,0,2012-10-11 05:34:00
1:53 AM,27.1,25.3,93,30.12,10.0,Calm,Calm,-,N/A,,Clear,0,2012-10-11 05:53:00
2:13 AM,27.1,25.7,94,30.12,10.0,Calm,Calm,-,N/A,,Clear,0,2012-10-11 06:13:00
2:34 AM,26.8,25.5,95,30.12,10.0,Calm,Calm,-,N/A,,Clear,0,2012-10-11 06:34:00
2:53 AM,27.9,26.8,96,30.12,10.0,Calm,Calm,-,N/A,,Clear,0,2012-10-11 06:53:00
3:14 AM,26.6,25.5,96,30.12,10.0,Calm,Calm,-,N/A,,Clear,0,2012-10-11 07:14:00
3:53 AM,29.8,27.3,90,30.11,10.0,Calm,Calm,-,N/A,,Clear,0,2012-10-11 07:53:00
4:14 AM,29.3,26.6,90,30.10,10.0,Calm,Calm,-,N/A,,Scattered Clouds,0,2012-10-11 08:14:00
4:33 AM,30.2,26.6,86,30.09,10.0,Calm,Calm,-,N/A,,Scattered Clouds,0,2012-10-11 08:33:00
4:54 AM,31.1,27.0,85,30.10,10.0,Calm,Calm,-,N/A,,Clear,0,2012-10-11 08:54:00
5:14 AM,31.1,26.8,84,30.10,10.0,South,3.5,-,N/A,,Clear,180,2012-10-11 09:14:00
5:33 AM,30.4,26.6,86,30.11,10.0,Calm,Calm,-,N/A,,Clear,0,2012-10-11 09:33:00
5:54 AM,31.8,28.2,87,30.11,10.0,Calm,Calm,-,N/A,,Mostly Cloudy,0,2012-10-11 09:54:00
6:13 AM,32.9,29.1,86,30.10,10.0,South,3.5,-,N/A,,Overcast,190,2012-10-11 10:13:00
6:34 AM,34.0,29.3,83,30.11,10.0,South,3.5,-,N/A,,Overcast,190,2012-10-11 10:34:00
6:54 AM,34.2,29.7,84,30.11,10.0,South,3.5,-,N/A,,Overcast,190,2012-10-11 10:54:00
7:13 AM,35.2,30.0,81,30.09,10.0,South,5.8,-,N/A,,Overcast,170,2012-10-11 11:13:00
7:34 AM,36.5,30.0,77,30.08,10.0,South,8.1,-,N/A,,Mostly Cloudy,170,2012-10-11 11:34:00
7:54 AM,37.4,30.2,75,30.08,10.0,South,8.1,-,N/A,,Scattered Clouds,190,2012-10-11 11:54:00
8:13 AM,37.0,30.4,77,30.07,10.0,South,8.1,-,N/A,,Scattered Clouds,180,2012-10-11 12:13:00
8:34 AM,37.4,31.1,78,30.07,10.0,South,6.9,-,N/A,,Overcast,190,2012-10-11 12:34:00
8:47 AM,37.6,31.1,77,30.07,10.0,SSW,9.2,-,N/A,,Overcast,200,2012-10-11 12:47:00
9:14 AM,39.2,32.0,75,30.06,10.0,South,9.2,-,N/A,,Mostly Cloudy,190,2012-10-11 13:14:00
9:34 AM,40.3,32.0,72,30.06,10.0,South,9.2,-,N/A,,Mostly Cloudy,190,2012-10-11 13:34:00
9:54 AM,41.0,32.0,70,30.04,10.0,South,9.2,-,N/A,,Overcast,190,2012-10-11 13:54:00
10:13 AM,42.6,32.0,66,30.04,10.0,SSW,12.7,20.7,N/A,,Overcast,200,2012-10-11 14:13:00
10:34 AM,45.3,32.0,60,30.02,10.0,SSW,15.0,20.7,N/A,,Overcast,200,2012-10-11 14:34:00
10:54 AM,45.7,32.0,59,30.01,10.0,SSW,16.1,24.2,N/A,,Mostly Cloudy,210,2012-10-11 14:54:00
11:13 AM,49.1,32.7,53,29.99,10.0,SSW,19.6,25.3,N/A,,Scattered Clouds,210,2012-10-11 15:13:00
11:34 AM,50.2,33.8,53,29.99,10.0,SW,17.3,29.9,N/A,,Scattered Clouds,220,2012-10-11 15:34:00
11:53 AM,51.4,34.0,51,29.97,10.0,SSW,19.6,27.6,N/A,,Scattered Clouds,210,2012-10-11 15:53:00
12:14 PM,53.4,34.9,49,29.96,10.0,SW,16.1,32.2,N/A,,Scattered Clouds,230,2012-10-11 16:14:00
12:34 PM,56.1,35.8,46,29.95,10.0,SW,23.0,29.9,N/A,,Clear,220,2012-10-11 16:34:00
12:53 PM,57.4,36.3,45,29.94,10.0,SW,19.6,27.6,N/A,,Clear,220,2012-10-11 16:53:00
1:14 PM,59.2,37.2,44,29.94,10.0,SW,25.3,33.4,N/A,,Mostly Cloudy,230,2012-10-11 17:14:00
1:54 PM,58.1,36.9,45,29.93,10.0,WSW,18.4,44.9,N/A,,Overcast,240,2012-10-11 17:54:00
2:14 PM,57.2,36.0,45,29.93,10.0,West,25.3,39.1,N/A,Rain,Light Rain,260,2012-10-11 18:14:00
2:33 PM,56.1,37.6,50,29.94,10.0,West,12.7,27.6,N/A,Rain,Light Rain,260,2012-10-11 18:33:00
2:54 PM,55.0,39.4,56,29.94,10.0,West,12.7,26.5,N/A,,Light Drizzle,260,2012-10-11 18:54:00
3:13 PM,51.8,42.6,71,29.96,10.0,West,15.0,24.2,N/A,Rain,Light Rain,280,2012-10-11 19:13:00
3:34 PM,50.7,42.8,74,29.97,10.0,West,11.5,19.6,N/A,Rain,Rain,280,2012-10-11 19:34:00
3:54 PM,49.5,43.2,79,29.98,10.0,West,13.8,19.6,N/A,Rain,Light Rain,280,2012-10-11 19:54:00
4:14 PM,48.4,42.8,81,29.99,10.0,West,11.5,24.2,N/A,Rain,Light Rain,280,2012-10-11 20:14:00
4:53 PM,47.1,42.8,85,30.00,10.0,West,9.2,18.4,N/A,Rain,Light Rain,280,2012-10-11 20:53:00
5:01 PM,47.1,42.8,85,30.00,10.0,West,12.7,19.6,N/A,Rain,Light Rain,270,2012-10-11 21:01:00
5:35 PM,46.4,42.8,87,30.02,10.0,WNW,9.2,-,N/A,,Overcast,290,2012-10-11 21:35:00
5:38 PM,46.9,42.3,84,30.02,10.0,West,10.4,-,N/A,,Overcast,280,2012-10-11 21:38:00
6:14 PM,47.3,42.1,82,30.04,10.0,NW,15.0,21.9,N/A,,Overcast,320,2012-10-11 22:14:00
6:54 PM,44.6,39.6,82,30.05,10.0,NW,6.9,-,N/A,,Overcast,310,2012-10-11 22:54:00
7:34 PM,44.2,38.8,81,30.07,10.0,West,4.6,-,N/A,,Overcast,280,2012-10-11 23:34:00
7:54 PM,44.1,38.3,80,30.08,10.0,West,6.9,-,N/A,,Overcast,280,2012-10-11 23:54:00
8:14 PM,43.9,38.3,81,30.09,10.0,WNW,5.8,-,N/A,,Overcast,290,2012-10-12 00:14:00
8:34 PM,43.9,38.1,80,30.09,10.0,West,5.8,-,N/A,,Overcast,280,2012-10-12 00:34:00
8:54 PM,43.7,37.9,80,30.10,10.0,WNW,5.8,-,N/A,,Overcast,290,2012-10-12 00:54:00
9:14 PM,43.7,37.8,80,30.11,10.0,WNW,3.5,-,N/A,,Overcast,290,2012-10-12 01:14:00
9:33 PM,43.7,37.6,79,30.12,10.0,West,3.5,-,N/A,,Overcast,280,2012-10-12 01:33:00
9:54 PM,43.3,37.4,80,30.12,10.0,WNW,3.5,-,N/A,,Overcast,300,2012-10-12 01:54:00
10:14 PM,42.8,37.0,80,30.13,10.0,NW,4.6,-,N/A,,Overcast,310,2012-10-12 02:14:00
10:54 PM,42.8,35.6,76,30.14,10.0,WNW,3.5,-,N/A,,Overcast,290,2012-10-12 02:54:00
11:34 PM,41.9,34.5,75,30.16,10.0,West,4.6,-,N/A,,Scattered Clouds,280,2012-10-12 03:34:00
11:54 PM,41.7,34.2,75,30.16,10.0,West,4.6,-,N/A,,Clear,280,2012-10-12 03:54:00